Regional Weather Roundup
Issued by NWS Kansas City/Pleasant Hill, MO

Home | Current Version | Previous Version | Text Only | Print | Product List | Glossary On
Versions: 1 2 3 4 5 6 7 8 9 10 11 12 13 14 15 16 17 18 19 20 21 22 23 24 25 26 27 28 29 30 31 32 33 34 35 36 37 38 39 40 41 42 43 44 45 46 47 48 49 50
000
ASUS43 KEAX 042010
RWREAX

WEATHER ROUNDUP FOR EASTERN KANSAS AND NORTHWEST MISSOURI
NATIONAL WEATHER SERVICE KANSAS CITY/PLEASANT HILL MO
300 PM CDT TUE AUG 04 2015

KSZ040-057-103>105-MOZ028-029-037-043-042100-
...KANSAS CITY METROPOLITAN AREA...

CITY           SKY/WX    TMP DP  RH WIND       PRES   REMARKS
K.C. INTL      CLOUDY    82  71  69 E14G22    29.97F
K.C. DOWNTOWN  CLOUDY    84  71  65 E14       29.95F
LEES SUMMIT    CLOUDY    80  70  71 E14       29.98F
OLATHE - IXD   CLOUDY    82  72  71 E13       29.97S
OLATHE - OJC   CLOUDY    80  71  74 E14       29.96S
LAWRENCE       CLOUDY    84  73  69 E9        29.94F HX  90

$$

MOZ001>008-011>017-020>025-030>033-038>040-044>046-053-054-042100-
...NORTHERN AND CENTRAL MISSOURI...

CITY           SKY/WX    TMP DP  RH WIND       PRES   REMARKS
ST. JOSEPH     CLOUDY    80  69  69 SE10      29.95F
MOSBY          CLOUDY    81  68  65 E8        29.97F
WARRENSBURG    CLOUDY    79  70  73 NE9       29.97F
WHITEMAN AFB   PTSUNNY   80  71  72 E10       29.97F
CLINTON        CLOUDY    88  72  58 NE3       29.97F HX  94
SEDALIA        CLOUDY    81  71  71 NE8       30.01F
WARSAW         NOT AVBL
CHILLICOTHE      N/A     80  68  66 E7        29.99F
KIRKSVILLE     PTSUNNY   74  66  76 SE5       30.01S

$$

MOZ041-047>049-056>058-063>065-088>090-097-042100-
...EASTERN AND SOUTHERN MISSOURI...

CITY           SKY/WX    TMP DP  RH WIND       PRES   REMARKS
ST. LOUIS INTL PTSUNNY   90  69  50 N13       29.99S HX  94
SPIRIT OF STL  PTSUNNY   90  71  53 NW6       29.97F HX  96
COLUMBIA       PTSUNNY   82  71  69 NE13      30.00F
JEFFERSON CITY CLOUDY    84  70  62 N10       29.97F
ROLLA          CLOUDY    89  68  49 NW6       29.99F HX  93
OSAGE BEACH    CLOUDY    88  68  51 SW5       29.99F HX  91
SPRINGFIELD    CLOUDY    86  66  51 SW12      30.01S
JOPLIN         CLOUDY    84  70  62 W10       30.02R
WEST PLAINS    CLOUDY    88  67  49 S8        30.03F HX  91

$$

IAZ060-094-KSZ022-034>040-054-083-096-NEZ052-066-093-042100-
...KANSAS...SOUTHEAST NEBRASKA AND IOWA...

CITY           SKY/WX    TMP DP  RH WIND       PRES   REMARKS
TOPEKA         CLOUDY    86  72  62 E14       29.93F HX  92
MANHATTAN      CLOUDY    77  73  87 CALM      29.92R THUNDER
EMPORIA        LGT RAIN  76  70  82 S15       29.97F
CHANUTE        CLOUDY    79  70  74 SW13G22   30.00S
WICHITA        LGT RAIN  82  70  66 S15       29.95F
OMAHA          CLOUDY    74  66  76 SE12      29.94F
LINCOLN        PTSUNNY   85  67  54 SE14      29.92F
FALLS CITY     CLOUDY    79  71  76 SE12      29.94F
LAMONI         CLOUDY    77  67  71 SE7       29.97F
DES MOINES     CLOUDY    77  58  51 E9        29.96F

$$



USA.gov is the U.S. government's official web portal to all federal, state and local government web resources and services.